Location: Katherine
(14.4670°S, 132.2670°E)
Time: 14:23:30
(UTC+09:30)

ISS - Pass Details

Date: 21 February 2018
Orbit: 402 x 407 km, 51.6° (Epoch: 23 February)

Event Time Altitude Azimuth Distance (km) Brightness Sun altitude
Exits shadow 04:54:59 - 178° (S) 1,536 -0.7 -25.3°
Reaches altitude 10° 04:55:12 10° 175° (S) 1,472 -0.7 -25.3°
Maximum altitude 04:57:29 17° 131° (SE) 1,106 -0.9 -24.8°
Drops below altitude 10° 04:59:45 10° 87° (E) 1,462 -0.1 -24.2°
Sets 05:02:18 0° 66° (ENE) 2,315 0.7 -23.7°
